Weather History for Superior, WI

Change the Weather History Date:

Monday, November 19, 2012

  Actual Average Record
Temperature  
Mean Temperature 38 °F -  
Max Temperature 48 °F 37 °F 55 °F (1953)
Min Temperature 28 °F 23 °F 5 °F (1951)
Degree Days  
Heating Degree Days 27    
Moisture  
Dew Point 34 °F    
Average Humidity 90    
Maximum Humidity 100    
Minimum Humidity 65    
Precipitation  
Precipitation 0.00 in - - ()
Sea Level Pressure  
Sea Level Pressure 30.05 in    
Wind  
Wind Speed 1 mph (NNE)    
Max Wind Speed 6 mph    
Max Gust Speed -    
Visibility 6 miles    
Events Fog    
Averages and records for this station are not official NWS values.
T = Trace of Precipitation, MM = Missing Value Source: NWS Daily Summary

Daily Weather History Graph

Daily Weather History Graph

Search for Another Location

Airport:

Trip Planner

Search our weather history database for the weather conditions in past years. The results will help you decide how hot, cold, wet, or windy it might be!

Date:

Astronomy

Nov. 19, 2012 Rise Set
Actual Time 7:17 AM CST 4:30 PM CST
Civil Twilight 6:43 AM CST 5:03 PM CST
Nautical Twilight 6:06 AM CST 5:40 PM CST
Astronomical Twilight 5:30 AM CST 6:16 PM CST
Moon 12:11 PM CST (11/19) 11:07 PM CST (11/19)
Length of Visible Light 10h 19m
Length of Day
9h 12m
Waxing Crescent, 41% of the Moon is Illuminated
Nov 19
Waxing Crescent
Nov 20
First Quarter
Nov 28
Full
Dec 6
Last Quarter
Dec 13
New

Hourly Weather History & Observations

Time (CST) Temp. Windchill Dew Point Humidity Pressure Visibility Wind Dir Wind Speed Gust Speed Precip Events Conditions
12:15 AM 30.6 °F - 30.2 °F 99% 30.10 in 2.5 mi Calm Calm - N/A   Clear
12:35 AM 31.3 °F - 30.2 °F 96% 30.09 in 5.0 mi Calm Calm - N/A   Clear
12:55 AM 30.2 °F - 28.8 °F 94% 30.09 in 5.0 mi Calm Calm - N/A   Clear
1:15 AM 31.5 °F - 31.3 °F 99% 30.08 in 3.0 mi Calm Calm - N/A   Clear
1:35 AM 31.1 °F - 30.6 °F 98% 30.07 in 4.0 mi Calm Calm - N/A   Clear
1:55 AM 31.3 °F - 30.6 °F 97% 30.07 in 3.0 mi Calm Calm - N/A   Clear
2:15 AM 32.7 °F - 31.8 °F 96% 30.07 in 5.0 mi Calm Calm - N/A   Clear
2:35 AM 31.6 °F - 30.9 °F 97% 30.07 in 4.0 mi Calm Calm - N/A   Clear
2:55 AM 31.3 °F - 30.4 °F 96% 30.07 in 4.0 mi Calm Calm - N/A   Clear
3:15 AM 32.2 °F - 32.0 °F 99% 30.07 in 4.0 mi Calm Calm - N/A   Clear
3:35 AM 32.0 °F 28.7 °F 31.6 °F 99% 30.07 in 5.0 mi NE 3.5 mph - N/A   Clear
3:55 AM 31.3 °F 27.9 °F 29.3 °F 92% 30.06 in 7.0 mi NE 3.5 mph - N/A   Clear
4:15 AM 30.0 °F - 28.9 °F 96% 30.06 in 5.0 mi Calm Calm - N/A   Clear
4:35 AM 30.7 °F - 30.0 °F 97% 30.06 in 5.0 mi Calm Calm - N/A   Clear
4:55 AM 32.0 °F - 31.8 °F 99% 30.05 in 5.0 mi Calm Calm - N/A   Clear
5:15 AM 28.9 °F - 28.0 °F 96% 30.05 in 2.5 mi Calm Calm - N/A   Scattered Clouds
5:35 AM 29.8 °F 26.3 °F 29.7 °F 99% 30.05 in 2.5 mi NE 3.5 mph - N/A   Scattered Clouds
5:55 AM 31.5 °F - 31.1 °F 99% 30.05 in 2.0 mi Calm Calm - N/A   Clear
6:15 AM 28.8 °F 23.7 °F 28.0 °F 97% 30.05 in 1.5 mi NE 4.6 mph - N/A   Mist
6:35 AM 31.1 °F - 30.9 °F 99% 30.05 in 2.5 mi Calm Calm - N/A   Clear
6:55 AM 30.7 °F - 30.6 °F 99% 30.05 in 0.2 mi Calm Calm - N/A Fog Light Freezing Fog
7:35 AM 32.0 °F - 31.8 °F 99% 30.06 in 4.0 mi Calm Calm - N/A   Overcast
7:55 AM 33.6 °F - 32.7 °F 96% 30.07 in 4.0 mi Calm Calm - N/A   Overcast
8:15 AM 35.8 °F - 35.4 °F 99% 30.06 in 3.0 mi Calm Calm - N/A   Overcast
8:35 AM 37.2 °F - 36.5 °F 97% 30.05 in 3.0 mi Calm Calm - N/A   Overcast
8:55 AM 39.6 °F - 38.3 °F 95% 30.05 in 5.0 mi Calm Calm - N/A   Overcast
9:15 AM 40.1 °F - 38.1 °F 93% 30.06 in 7.0 mi Calm Calm - N/A   Overcast
9:35 AM 42.1 °F 40.2 °F 38.5 °F 87% 30.06 in 10.0 mi North 3.5 mph - N/A   Overcast
9:55 AM 45.7 °F 44.4 °F 39.7 °F 80% 30.06 in 10.0 mi NNE 3.5 mph - N/A   Overcast
10:15 AM 45.9 °F - 39.2 °F 78% 30.06 in 10.0 mi Calm Calm - N/A   Overcast
10:35 AM 46.0 °F 44.8 °F 38.7 °F 75% 30.06 in 10.0 mi NE 3.5 mph - N/A   Overcast
10:55 AM 46.6 °F - 37.8 °F 71% 30.05 in 10.0 mi Calm Calm - N/A   Overcast
11:15 AM 47.3 °F - 38.1 °F 70% 30.04 in 10.0 mi Calm Calm - N/A   Overcast
11:35 AM 47.7 °F - 37.8 °F 69% 30.04 in 10.0 mi ENE 3.5 mph - N/A   Overcast
11:55 AM 47.8 °F - 36.7 °F 65% 30.03 in 10.0 mi Calm Calm - N/A   Overcast
12:15 PM 48.6 °F - 37.4 °F 65% 30.03 in 10.0 mi Calm Calm - N/A   Overcast
12:35 PM 48.2 °F - 37.0 °F 65% 30.02 in 10.0 mi NNE 5.8 mph - N/A   Overcast
12:55 PM 46.6 °F - 37.9 °F 72% 30.02 in 10.0 mi NE 5.8 mph - N/A   Overcast
1:15 PM 46.4 °F 44.3 °F 38.5 °F 74% 30.02 in 10.0 mi NE 4.6 mph - N/A   Overcast
1:35 PM 47.3 °F - 38.1 °F 70% 30.02 in 10.0 mi NE 4.6 mph - N/A   Overcast
1:55 PM 46.9 °F - 38.3 °F 72% 30.02 in 10.0 mi East 5.8 mph - N/A   Overcast
2:15 PM 46.6 °F - 37.9 °F 72% 30.01 in 10.0 mi East 3.5 mph - N/A   Overcast
2:35 PM 46.8 °F - 37.6 °F 70% 30.02 in 10.0 mi NNE 3.5 mph - N/A   Overcast
2:55 PM 46.4 °F - 37.8 °F 72% 30.01 in 10.0 mi Calm Calm - N/A   Overcast
3:15 PM 45.5 °F - 38.5 °F 76% 30.01 in 10.0 mi Calm Calm - N/A   Overcast
3:35 PM 45.1 °F - 38.5 °F 77% 30.01 in 10.0 mi Calm Calm - N/A   Overcast
3:55 PM 44.8 °F - 39.0 °F 80% 30.02 in 10.0 mi Calm Calm - N/A   Overcast
4:15 PM 44.2 °F 42.7 °F 39.2 °F 82% 30.02 in 10.0 mi NNE 3.5 mph - N/A   Overcast
4:35 PM 43.3 °F - 39.4 °F 86% 30.02 in 10.0 mi Calm Calm - N/A   Overcast
4:55 PM 41.2 °F - 38.5 °F 90% 30.03 in 10.0 mi Calm Calm - N/A   Mostly Cloudy
5:15 PM 40.6 °F 38.6 °F 38.8 °F 93% 30.03 in 10.0 mi NNE 3.5 mph - N/A   Scattered Clouds
5:35 PM 35.8 °F - 34.7 °F 96% 30.03 in 2.0 mi Calm Calm - N/A   Clear
5:55 PM 38.7 °F - 38.1 °F 98% 30.04 in 5.0 mi Calm Calm - N/A   Clear
6:15 PM 35.2 °F - 34.5 °F 97% 30.04 in 3.0 mi Calm Calm - N/A   Clear
6:35 PM 34.3 °F - 34.3 °F 100% 30.04 in 2.0 mi Calm Calm - N/A   Clear
6:55 PM 32.9 °F 29.8 °F 32.7 °F 99% 30.04 in 1.0 mi SW 3.5 mph - N/A   Mist
7:15 PM 33.8 °F - 33.8 °F 100% 30.04 in 1.0 mi Calm Calm - N/A   Mist
7:35 PM 33.8 °F 30.8 °F 33.8 °F 100% 30.04 in 1.8 mi WNW 3.5 mph - N/A   Mist
7:55 PM 32.9 °F - 32.9 °F 100% 30.04 in 2.0 mi Calm Calm - N/A   Clear
8:15 PM 31.8 °F - 31.8 °F 100% 30.04 in 1.2 mi Calm Calm - N/A   Mist
8:35 PM 30.2 °F - 30.2 °F 100% 30.04 in 0.2 mi Calm Calm - N/A Fog Light Freezing Fog
9:15 PM 31.3 °F 27.9 °F 31.1 °F 99% 30.03 in 0.8 mi WSW 3.5 mph - N/A   Mist
9:35 PM 31.6 °F - 31.6 °F 100% 30.04 in 3.0 mi Calm Calm - N/A   Clear
9:55 PM 31.6 °F - 31.6 °F 100% 30.04 in 2.5 mi Calm Calm - N/A   Clear
10:15 PM 29.7 °F - 29.5 °F 99% 30.04 in 1.5 mi Calm Calm - N/A   Mist
10:35 PM 28.9 °F 23.9 °F 28.6 °F 99% 30.05 in 2.0 mi SW 4.6 mph - N/A   Clear
10:55 PM 30.4 °F 26.9 °F 30.4 °F 100% 30.05 in 2.5 mi SW 3.5 mph - N/A   Clear
11:15 PM 29.3 °F 25.6 °F 29.1 °F 99% 30.06 in 3.0 mi WSW 3.5 mph - N/A   Clear
11:35 PM 28.4 °F 24.6 °F 28.2 °F 99% 30.06 in 4.0 mi West 3.5 mph - N/A   Clear
11:55 PM 28.8 °F 25.0 °F 28.6 °F 99% 30.06 in 2.0 mi SSW 3.5 mph - N/A   Clear